Location: Long Geng
(2.6167°N, 114.1333°E)
Time: 06:38:13
(UTC+00:00)

Ariane 44LP R/B - Pass Details

Date: 25 September 2021
Orbit: 475 x 17834 km, 3.6° (Epoch: 26 October)

Event Time Altitude Azimuth Distance (km) Brightness Sun altitude
Rises 15:24:25 0° 264° (W) 10,202 9.9 -77.3°
Reaches altitude 10° 15:35:15 10° 262° (W) 6,442 8.7 -80.0°
Enters shadow 15:37:55 14° 261° (W) 5,399 8.3 -80.6°
